Weather in Izobilne

Russia / Republic of Crimea     45°34′13″N   34°56′30″E
temp.,
°C
wind,
m/s
gust,
m/s
humid.,
%
clouds,
%
prec.,
mm/h
press.,
hPa
HPBL,
m
5 august, thu
thu500:00+25e235753 0.0 1015150
03:00+25ene3459100 0.0 1015243
06:00+25e34630 0.0 1015214
09:00+29e44505 0.0 1014949
12:00+30e54435 0.0 10141193
15:00+30ene65465 0.0 1013870
18:00+29e665044 0.0 1011462
21:00+26e45584 0.0 1010137
6 august, fri
fri600:00+26ese45600 0.0 1010162
03:00+24s22615 0.0 100866
06:00+23ne11600 0.0 100852
09:00+29ene344174 0.0 1007605
12:00+31e44430 0.0 1005732
15:00+32ne54470 0.0 1004867
18:00+29ene45600 0.0 1003329
21:00+27ese34720 0.0 100376
7 august, sat
sat700:00+24wnw33680 0.0 100357
03:00+24w22824 0.0 100339
06:00+23w4679100 0.0 1004114
09:00+29nw455155 0.0 1004516
12:00+31n6747100 0.0 1005880
15:00+33n5742100 0.0 10041444
18:00+32nne464431 0.0 1004948
21:00+30nnw7135715 0.0 1006503
8 august, sun
sun800:00+27nnw81362100 0.0 1008575
03:00+26nnw7115878 0.1 1009501
06:00+24nnw576328 0.0 1010322
09:00+27nnw78592 0.0 1011705
12:00+29nnw66510 0.0 1012950
15:00+31n56400 0.0 10121321
18:00+32nnw56340 0.0 10121301
21:00+26nnw47600 0.0 1014135
9 august, mon
mon900:00+26nnw47540 0.0 1014169
03:00+24nw35550 0.0 1014134
06:00+24nw34580 0.0 1014152
09:00+28nnw45490 0.0 1015710
12:00+30n56440 0.0 1015957
15:00+31nne55420 0.0 10141062
18:00+29ene44610 0.0 1014457
21:00+26ne22760 0.0 101596